AT&T T-16

Last updated on Tue Sep 22 2026 00:03:15 GMT+0000 (Coordinated Universal Time)

1 44333U 19034A 26264.54879205 -.00000119 00000+0 00000+0 0 9994 2 44333 0.0156 134.8805 0000713 313.9352 8.3300 1.00269719 26598
UTC large
Height (km)
Speed (km/s)
/
Latitude / Longitude
Inclination (degrees)
Orbital Period (minutes)
Azimuth
Elevation
Range (km)
Doppler Factor

Next 0 passes for location: London (51.5072 / 0.1276)

No passes found over London.
AT&T T-16